Location: Hains Lake
(37.8540°N, 99.8578°W)
Time: 16:38:46
(UTC+00:00)

Hubble Space Telescope - Visible Passes

Search period start: 25 February 2021 00:00
Search period end: 07 March 2021 00:00
Orbit: 536 x 539 km, 28.5° (Epoch: 25 February)

Date Brightness Start Highest point End Pass type
(mag) Time Alt. Az. Time Alt. Az. Time Alt. Az.
05 Mar 3.6 02:56:35 10° SW 02:56:44 11° SW 02:56:44 11° SW visible
06 Mar 3.1 01:06:47 10° S 01:08:05 11° SSE 01:09:23 10° SE visible
06 Mar 3.1 02:45:30 10° SW 02:46:40 15° SSW 02:46:40 15° SSW visible
